Home   Weather   Carlisle   Past weeks

Flag for United Kingdom Past Weather in Carlisle, England, United Kingdom — Yesterday and Last 2 Weeks

Now
52 °F

Partly sunny.


Feels Like: 49 °F
Forecast: 33 / 53 °F
Wind: 9 mph from Northwest

Location: Carlisle Airport

Current Time: Apr 27, 2017 at 2:11:56 pm

Latest Report: Apr 27, 2017 at 1:20 pm


Visibility: N/A

Pressure: 29.98 "Hg

Humidity: 62%

Dew Point: 39 °F

Location of CarlisleLocation

Past Weather in Carlisle — Graph

°F

Carlisle Temperature Yesterday

Maximum temperature yesterday: 46 °F (at 1:50 pm)
Minimum temperature yesterday: 37 °F (at 8:50 am)
Average temperature yesterday: 43 °F

High & Low Weather Summary for the Past Weeks

 TemperatureHumidityPressure
High55 °F (Apr 20, 11:20 am)94% (Apr 14, 11:20 am)30.57 "Hg (Apr 14, 11:20 am)
Low36 °F (Apr 24, 5:50 pm)40% (Apr 24, 1:50 pm)29.83 "Hg (Apr 14, 5:50 pm)
Average48 °F69%30.19 "Hg
* Reported Apr 12 12:20 pm — Apr 27 12:50 pm, Carlisle, Weather by CustomWeather, © 2017

Note: Actual official high and low records may vary slightly from our data, if they occured in-between our weather recording intervals... More about our weather records

Advertising

Carlisle Weather History for the Previous 24 Hours

Scroll right to see more
 ConditionsComfort  
Time TempWeatherWind HumidityBarometerVisibility
12:50 pm
Thu, Apr 27
50 °FLight rain. Partly sunny.7 mph71%29.98 "HgN/A
12:20 pm50 °FLight rain. Partly sunny.7 mph71%29.98 "HgN/A
11:50 am50 °FLight rain. Partly sunny.9 mph67%30.01 "HgN/A
11:20 am50 °FPartly sunny.8 mph71%30.01 "HgN/A
10:50 am50 °FPartly sunny.9 mph67%30.01 "HgN/A
10:20 am48 °FScattered clouds.7 mph76%30.01 "HgN/A
9:50 am48 °FScattered clouds.10 mph76%30.01 "HgN/A
9:20 am46 °FScattered clouds.10 mph82%30.01 "HgN/A
8:50 am45 °FScattered clouds.9 mph87%30.04 "HgN/A
5:50 pm
Wed, Apr 26
45 °FPartly sunny.2 mph53%30.12 "HgN/A
5:20 pm45 °FPartly sunny.7 mph49%30.12 "HgN/A
4:50 pm45 °FPartly sunny.6 mph49%30.12 "HgN/A
4:20 pm45 °FPartly sunny.5 mph46%30.12 "HgN/A
3:50 pm46 °FPartly sunny.6 mph43%30.12 "HgN/A
3:20 pm46 °FPartly sunny.2 mph43%30.12 "HgN/A
2:50 pm46 °FPartly sunny.5 mph43%30.12 "HgN/A
2:20 pm46 °FPartly sunny.7 mph43%30.12 "HgN/A
Weather by CustomWeather, © 2017

See weather overviewHow to use our weather pages